This is the latest recevied weather packets stored in our database for station/object N8VDS-10. If no packets are shown the sender has not sent any weather packets the latest 10 day(s).
| Time | Temp. | Humidity | Pressure | Rain* | Wind** | Luminosity | Snow |
|---|---|---|---|---|---|---|---|
| 1777468458 | 7.22° C | 90% | 1017 hPa | 0 mm | - | 161 W/m² | - |
| 1777468155 | 7.22° C | 91% | 1017.1 hPa | 0 mm | - | 159 W/m² | - |
| 1777467850 | 7.22° C | 92% | 1017.2 hPa | 0 mm | - | 113 W/m² | - |
| 1777467546 | 7.22° C | 92% | 1017.3 hPa | 0 mm | - | 91 W/m² | - |
| 1777467241 | 7.22° C | 92% | 1017.3 hPa | 0 mm | - | 57 W/m² | - |
| 1777466938 | 7.22° C | 92% | 1017.2 hPa | 0 mm | - | 50 W/m² | - |
| 1777466636 | 7.78° C | 92% | 1017.3 hPa | 0 mm | - | 96 W/m² | - |
| 1777466332 | 7.78° C | 92% | 1017.5 hPa | 0 mm | - | 119 W/m² | - |
| 1777466029 | 7.22° C | 92% | 1017.6 hPa | 0 mm | - | 61 W/m² | - |
| 1777465725 | 7.22° C | 91% | 1017.7 hPa | 0 mm | - | 83 W/m² | - |
| 1777465421 | 7.22° C | 91% | 1017.8 hPa | 0 mm | - | 93 W/m² | - |
| 1777465120 | 7.78° C | 91% | 1017.7 hPa | 0 mm | - | 120 W/m² | - |
| 1777464816 | 7.78° C | 91% | 1017.6 hPa | 1.78 mm | - | 38 W/m² | - |
| 1777464511 | 7.78° C | 91% | 1017.4 hPa | 1.78 mm | - | 28 W/m² | - |
| 1777464207 | 7.78° C | 90% | 1017.7 hPa | 1.27 mm | - | 36 W/m² | - |
| 1777463907 | 7.78° C | 89% | 1017.7 hPa | 3.05 mm | - | 21 W/m² | - |
| 1777463603 | 8.33° C | 89% | 1017.8 hPa | 1.78 mm | - | 23 W/m² | - |
| 1777463298 | 8.33° C | 88% | 1017.9 hPa | 0 mm | - | 23 W/m² | - |
| 1777462995 | 8.33° C | 87% | 1017.9 hPa | 0 mm | - | 16 W/m² | - |
| 1777462690 | 8.33° C | 87% | 1017.5 hPa | 0 mm | - | 16 W/m² | - |
| 1777462386 | 8.33° C | 86% | 1017.7 hPa | 0 mm | - | 12 W/m² | - |
| 1777462082 | 8.33° C | 84% | 1017.6 hPa | 0 mm | - | 4 W/m² | - |
| 1777461779 | 8.33° C | 85% | 1017.5 hPa | 0 mm | - | 4 W/m² | - |
| 1777461474 | 8.33° C | 84% | 1017.5 hPa | 0 mm | - | 4 W/m² | - |
| 1777461171 | 8.33° C | 83% | 1017.4 hPa | 0 mm | - | 2 W/m² | - |
* Rain latest hour (hover to see other rain measurements)
** Current wind speed in m/s (hover to see current wind gust speed)